Location: Riedlingen
(48.1569°N, 9.4757°E)
Time: 17:14:38
(UTC+02:00)

ISS - Visible Passes

Search period start: 18 May 2021 00:00
Search period end: 28 May 2021 00:00
Orbit: 417 x 422 km, 51.6° (Epoch: 18 May)

Date Brightness Start Highest point End Pass type
(mag) Time Alt. Az. Time Alt. Az. Time Alt. Az.
18 May -3.0 01:19:01 10° WNW 01:22:20 52° NNE 01:22:53 45° NE visible
18 May -3.1 22:54:19 10° W 22:57:38 57° NNW 23:00:59 10° ENE visible
19 May -2.7 00:31:31 10° WNW 00:34:48 46° N 00:36:27 24° ENE visible
19 May -1.6 02:08:23 10° WNW 02:09:22 18° WNW 02:09:22 18° WNW visible
19 May -3.5 22:06:47 10° WSW 22:10:08 71° NNW 22:13:31 10° ENE visible
19 May -2.6 23:43:59 10° WNW 23:47:14 44° N 23:50:17 11° ENE visible
20 May -2.7 01:20:54 10° WNW 01:23:12 40° WNW 01:23:12 40° WNW visible
20 May -2.6 22:56:25 10° WNW 22:59:40 44° N 23:02:56 10° ENE visible
21 May -3.4 00:33:26 10° WNW 00:36:48 63° NNE 00:37:06 59° NE visible
21 May -2.7 22:08:50 10° W 22:12:07 48° N 22:15:24 10° ENE visible
21 May -3.0 23:45:57 10° WNW 23:49:16 52° NNE 23:51:03 24° E visible
22 May -1.7 01:22:49 10° WNW 01:23:59 19° W 01:23:59 19° W visible
22 May -2.7 22:58:26 10° WNW 23:01:43 46° N 23:04:59 10° E visible
23 May -3.2 00:35:19 10° WNW 00:37:58 51° W 00:37:58 51° W visible
23 May -2.6 22:10:53 10° WNW 22:14:09 44° N 22:17:24 10° ENE visible
23 May -3.8 23:47:50 10° WNW 23:51:12 81° NNE 23:51:59 50° E visible
24 May -3.4 23:00:21 10° WNW 23:03:42 63° NNE 23:06:01 18° E visible
25 May -2.0 00:37:18 10° W 00:38:57 23° W 00:38:57 23° W visible
25 May -3.0 22:12:50 10° WNW 22:16:09 52° NNE 22:19:28 10° E visible
25 May -3.5 23:49:42 10° WNW 23:53:00 50° SSW 23:53:01 50° SSW visible
26 May -3.8 23:02:11 10° WNW 23:05:33 74° SSW 23:07:06 29° SE visible
27 May -1.0 00:39:53 10° W 00:40:02 11° WSW 00:40:02 11° WSW visible
27 May -3.7 22:14:41 10° WNW 22:18:04 82° NNE 22:21:12 12° ESE visible
27 May -2.1 23:51:52 10° W 23:54:09 22° SW 23:54:09 22° SW visible
